Location: Borotín
(49.5055°N, 14.6142°E)
Time: 17:27:17
(UTC+00:00)

Cosmos 2369 Rocket - Pass Details

Date: 27 May 2022
Orbit: 830 x 851 km, 71.0° (Epoch: 25 June)

Event Time Altitude Azimuth Distance (km) Brightness Sun altitude
Rises 01:35:14 0° 329° (NNW) 3,387 5.7 -11.2°
Reaches altitude 10° 01:37:41 10° 327° (NNW) 2,448 4.9 -10.9°
Maximum altitude 01:43:15 68° 246° (WSW) 892 2.1 -10.4°
Drops below altitude 10° 01:48:47 10° 164° (SSE) 2,432 4.3 -9.8°
Sets 01:51:12 0° 162° (SSE) 3,363 5.0 -9.5°
